Regional Weather Roundup
Issued by NWS Kansas City/Pleasant Hill, MO

Home | Current Version | Previous Version | Text Only | Print | Product List | Glossary On
Versions: 1 2 3 4 5 6 7 8 9 10 11 12 13 14 15 16 17 18 19 20 21 22 23 24 25 26 27 28 29 30 31 32 33 34 35 36 37 38 39 40 41 42 43 44 45 46 47 48 49 50
000
ASUS43 KEAX 190910
RWREAX

WEATHER ROUNDUP FOR EASTERN KANSAS AND NORTHWEST MISSOURI
NATIONAL WEATHER SERVICE KANSAS CITY/PLEASANT HILL MO
400 AM CDT TUE SEP 19 2017

KSZ040-057-103>105-MOZ028-029-037-043-191000-
...KANSAS CITY METROPOLITAN AREA...

CITY           SKY/WX    TMP DP  RH WIND       PRES   REMARKS
K.C. INTL      MOCLDY    66  66 100 SE6       29.89F FOG
K.C. DOWNTOWN  PTCLDY    69  68  96 E5        29.89F
LEES SUMMIT    FOG       66  66 100 CALM      29.91S VSB 1/2
OLATHE - IXD   CLOUDY    68  66  93 E8        29.90S
OLATHE - OJC   LGT RAIN  65  65 100 S6        29.89F
LAWRENCE       MOCLDY    67  67 100 NE6       29.87F

$$

MOZ001>008-011>017-020>025-030>033-038>040-044>046-053-054-191000-
...NORTHERN AND CENTRAL MISSOURI...

CITY           SKY/WX    TMP DP  RH WIND       PRES   REMARKS
ST. JOSEPH     CLOUDY    67  67 100 SE6       29.89F
MOSBY          FOG       66  66 100 CALM      29.90F VSB 1/2
WARRENSBURG    FOG       63  63 100 CALM      29.91S VSB 1/4
WHITEMAN AFB   FOG       64  64 100 SE5       29.91S VSB 3/4
CLINTON        FOG       63  63 100 CALM      29.92S VSB 3/4
SEDALIA        FOG       64  64 100 S5        29.94S VSB 1/2
WARSAW         NOT AVBL
CHILLICOTHE      N/A     62  62 100 CALM      29.92F
KIRKSVILLE     FOG       64  64 100 S3        29.94S VSB 1/4

$$

MOZ041-047>049-056>058-063>065-088>090-097-191000-
...EASTERN AND SOUTHERN MISSOURI...

CITY           SKY/WX    TMP DP  RH WIND       PRES   REMARKS
ST. LOUIS INTL PTCLDY    68  68 100 CALM      29.94F
SPIRIT OF STL  CLOUDY    65  65 100 CALM      29.93F
COLUMBIA       FOG       63  63 100 CALM      29.94F VSB 3/4
JEFFERSON CITY FOG       65  63  93 CALM      29.93S VSB 1/4
ROLLA          FOG       64  64 100 S3        29.95F VSB 1/2
OSAGE BEACH    FOG       64  64 100 CALM      29.94F VSB 1/4
SPRINGFIELD    FOG       65  65 100 S3        29.93F VSB 1/2
BRANSON        FOG       63  63 100 MISG      29.95S VSB 3/4
JOPLIN         CLEAR     66  66 100 SE6       29.91F
WEST PLAINS    FOG       63  62  97 CALM      29.96S VSB 1/2

$$

IAZ060-094-KSZ022-034>040-054-083-096-NEZ052-066-093-191000-
...KANSAS...SOUTHEAST NEBRASKA AND IOWA...

CITY           SKY/WX    TMP DP  RH WIND       PRES   REMARKS
TOPEKA         PTCLDY    69  67  93 SE6       29.85F
MANHATTAN      CLEAR     71  66  84 SW9       29.83F
EMPORIA        CLEAR     67  64  90 S12       29.87F
CHANUTE        PTCLDY    68  65  90 S5        29.89F
WICHITA        PTCLDY    68  67  96 SE7       29.86F
OMAHA          CLOUDY    68  64  87 SE12      29.84F
LINCOLN        CLEAR     66  65  96 SE7       29.82F
FALLS CITY     CLEAR     66  65  96 SE6       29.85F FOG
LAMONI         CLOUDY    63  63 100 E5        29.91F FOG
DES MOINES     FOG       63  63 100 SE7       29.90F VSB 1/8

$$




USA.gov is the U.S. government's official web portal to all federal, state and local government web resources and services.